Location: *
(44.1392°N, 4.8079°E)
Time: 11:13:40
(UTC+00:00)

Lacrosse 5 rocket - Pass Details

Date: 19 October 2021
Orbit: 459 x 633 km, 57.0° (Epoch: 29 November)

Event Time Altitude Azimuth Distance (km) Brightness Sun altitude
Exits shadow 05:20:22 10° 279° (W) 1,874 3.3 -8.0°
Maximum altitude 05:23:57 26° 336° (NNW) 1,187 2.8 -7.3°
Drops below altitude 10° 05:27:43 10° 33° (NNE) 1,965 4.5 -6.6°
Sets 05:30:23 0° 47° (NE) 2,895 5.6 -6.2°
